Regional Weather Roundup
Issued by NWS

Home | Current Version | Previous Version | Text Only | Print | Product List | Glossary On
Versions: 1 2 3 4 5 6 7 8 9 10 11 12 13 14 15 16 17 18 19 20 21 22 23 24 25 26 27 28 29 30 31 32 33 34 35 36 37 38 39 40 41 42 43 44 45 46 47 48 49 50
000
ASUS46 KPQR 060910
RWROR

OREGON REGIONAL WEATHER ROUNDUP
NATIONAL WEATHER SERVICE PORTLAND OR
100 AM PST TUE DEC 06 2016

NOTE: "FAIR" INDICATES FEW OR NO CLOUDS BELOW 12,000 FEET WITH
NO SIGNIFICANT WEATHER AND/OR OBSTRUCTIONS TO VISIBILITY.

ORZ001>013-061000-
NORTHWEST OREGON


CITY           SKY/WX    TMP DP  RH WIND       PRES   REMARKS
ASTORIA        MOCLDY    36  31  82 SE5       29.99F WCI  32
NEWPORT        RAIN      37  36  93 CALM      30.02F
PORTLAND       CLOUDY    37  34  89 SW3       30.01F
VANCOUVER WA   CLOUDY    38  34  85 CALM      30.01S
SCAPPOOSE      CLOUDY    35  33  92 W5        30.01S WCI  31
HILLSBORO      CLOUDY    35  33  92 CALM      30.00F
AURORA         CLOUDY    37  36  96 SW8       30.01S WCI  31
MCMINNVILLE    FOG       34  33  96 NE5       30.01F VSB 1/2 WCI  30
SALEM          CLOUDY    36  33  89 S5        30.00F WCI  32
CORVALLIS        N/A     37  34  87 CALM      30.02S
EUGENE         MOCLDY    37  34  89 S8        30.02F WCI  31
$$

ORZ021-028-061000-
SOUTHWEST OREGON


CITY           SKY/WX    TMP DP  RH WIND       PRES   REMARKS
NORTH BEND     CLOUDY    39  39 100 SE8       30.05F WCI  34
BROOKINGS      LGT RAIN  41  39  93 VRB3      30.08F
ROSEBURG       CLOUDY    39  37  92 CALM      30.03F
SEXTON SUMMIT  SNOW      29  27  92 VRB3      29.92F VSB 1/2
MEDFORD        CLOUDY    34  33  96 CALM      30.02F FOG
$$

ORZ014>016-041-061000-
COLUMBIA GORGE


CITY           SKY/WX    TMP DP  RH WIND       PRES   REMARKS
TROUTDALE      CLOUDY    38  36  92 SE3       30.01F
THE DALLES     CLOUDY    34  32  92 CALM      30.00S
$$

ORZ029>031-041-044-049-050-061>064-502-503-505>511-061000-
EASTERN OREGON


CITY           SKY/WX    TMP DP  RH WIND       PRES   REMARKS
REDMOND        CLOUDY    28  23  81 CALM      29.88F
BEND           LGT SNOW  27  25  93 CALM      29.87F
PRINEVILLE     NOT AVBL
KLAMATH FALLS  FLURRIES  29  26  89 SW10      29.90F WCI  20
LAKEVIEW       CLOUDY    27  19  74 SE7       29.89F WCI  19
HERMISTON      CLOUDY    33  31  92 N5        29.98S WCI  29
PENDLETON      LGT SNOW  30  29  96 NW9       29.93R FOG     WCI  22
JOHN DAY       LGT SNOW  28  26  94 CALM      29.85S
MEACHAM        NOT AVBL
LA GRANDE      CLOUDY    28  16  59 S13       29.87F WCI  18
BAKER CITY     MOCLDY    23  18  81 E12       29.86F WCI  12
BURNS          CLOUDY    19  16  88 NE3       29.85F
ROME             N/A     17  10  74 SW5       29.86F WCI  10
ONTARIO        CLOUDY    29  18  63 S6        29.97F WCI  23
$$



USA.gov is the U.S. government's official web portal to all federal, state and local government web resources and services.